Showing default

OPS 0100 (TRANSIT 15), 2754

Orbit data source: Space-Track

OPS 0100 (TRANSIT 15), 2754 is a payload satellite owned by USN NAVAIR (US) in LEO that was launched on Fri, 14 Apr 1967 UTC via an SCOUT A launch vehicle from the Air Force Western Test Range (AFWTR). Payload-class satellites include a variety of spacecraft equipped with specific instruments for various scientific and technological missions. These include communications satellites like Starlink; space stations such as the ISS; scientific satellites like the Hubble; Earth observation satellites from companies like Planet Labs, Umbra, and HawkEye 360; GPS; miniature CubeSats for education and research; and military/defense satellites.

Loading next visibility...
Identifier
2754, 1967-034A
Orbit
LEO
Country
Flag of USUS
Related business
Manufacturer
APL
Mission
Spacecraft
Bus & Motor
TRANSIT 5, Unknown motor
Mass
~50 kg wet, ~50 kg dry
Launch date (UTC)
1967-04-14 (59 years ago)
Launch vehicle
SCOUT A
Launch site
Air Force Western Test Range (AFWTR)
Object type
Payload
Rocket body
Debris
Shape & HBR
Unknown
Radar Cross Section
Large (>1 m²)

Expand to show TLE details & history
Last TLE update: 14 hours ago

TLE from 14 hours ago
0 OPS 0100 (TRANSIT 15)
1 02754U 67034A   25311.15915522  .00000192  00000-0  25572-3 0  9996
2 02754  90.2304  29.9557 0021353  78.3375 342.0848 13.57343494895994
Epoch: 2025-11-07T03:49Z
TLE epoch observation values (Epoch: 2025-11-07T03:49:11.011Z)
Latitude
60.43583°
Longitude
-74.35138°
Altitude
1,040.661 km
Speed
7.345 km/s
True Right ascension
01h 58m 12s
True Declination
60° 17' 37"
Sunlit
Object was in full shadow at epoch
Visualization orbit readout
Latitude
Unknown
Longitude
Unknown
Altitude
Unknown
Speed
Unknown
Apparent Right ascension
Unknown
Apparent Declination
Unknown
Sunlit
N/A
Visualization observer readout
Local Sidereal Time
14:10:45
Azimuth
Unknown
Elevation
Unknown
Doppler factor
Unknown
Orbital elements
Apogee altitude
1,058.246 km
Perigee altitude
1,026.556 km
Semi-major axis
7,420.538 km
Eccentricity
0.00214
Inclination
90.2304°
RAAN
29.9557°
Arg. of periapsis
78.3375°
True anomaly
342.00934°
Mean anomaly
342.0848°
Eccentric anomaly
342.04709°
Mean motion
3.39539 °/min
Orbital period
106.03 mins
BSTAR
0.00025572
Loading maneuver chart data...
Computing Atmospheric mass density...
Loading historical data...
Loading historical data...
Loading historical data...
Loading historical data...
Loading historical data...
Loading historical data...
Loading historical data...

Documentation

Showing up to 5 results
|